Location: Kershaw
(34.5481°N, 80.5823°W)
Time: 13:47:25
(UTC+00:00)

Tiros 1 despin weight - Pass Details

Date: 12 October 2022
Orbit: 590 x 637 km, 48.2° (Epoch: 25 November)

Event Time Altitude Azimuth Distance (km) Brightness Sun altitude
Rises 17:11:31 0° 239° (WSW) 2,805 ? 47.9°
Reaches altitude 10° 17:13:47 10° 242° (WSW) 1,908 ? 47.9°
Maximum altitude 17:18:08 67° 325° (NW) 643 ? 47.8°
Drops below altitude 10° 17:22:32 10° 48° (NE) 1,929 ? 47.7°
Sets 17:24:51 0° 51° (NE) 2,840 ? 47.7°
